User: anonymous   Login
Location: ????????
(54.8751°N, 38.5756°E)
Time: 10:38:23
(UTC+00:00)
Language:

ADEOS II - Orbit

View from above orbital plane
View from above orbital plane
View from above satellite
View from above satellite

Ground track
Ground track

The orbit data is extracted from the following two-line orbital elements,

1 27597U 02056A   24164.83466427  .00000534  00000-0  23145-3 0  9990
2 27597  98.6917 111.5385 0002109  70.5831 289.5578 14.28373667119633
Epoch (UTC): 12 June 2024 20:01:54
Eccentricity: 0.0002109
inclination: 98.6917°
perigee height: 795 km
apogee height: 798 km
right ascension of ascending node: 111.5385°
argument of perigee: 70.5831°
revolutions per day: 14.28373667
mean anomaly at epoch: 289.5578°
orbit number at epoch: 11963

The dashed part of the orbit path shows where the satellite is in the earth's shadow,  

DLR